Nerlerit Inaat

KL  EN  DA
ASIAQ
Weather Now GREENLAND SURVEY
Updated [WGT/WGST] Temperature [°C] Wind [m/s] Air pressure [hPa] Relative humidity [%] Precipitation [mm]
Present Wind chill Speed Max
20.10 16:00-13,70,01,1 ⇗1,7101776n/a
20.10 15:00-12,7-17,62,2 ⇒2,9101876n/a
20.10 14:00-11,7-16,92,5 ⇘4,2101873n/a
20.10 13:00-12,60,00,5 ⇘1,6101873n/a
20.10 12:00-11,10,01,2 ⇘1,9101972n/a
20.10 11:00-10,1-13,71,7 ⇘3,5101973n/a
20.10 10:00-11,10,01,3 ⇘2,0101973n/a
20.10 09:00-12,20,00,6 ⇘1,4101978n/a
20.10 08:00-12,1-17,02,3 ⇓2,6101979n/a
20.10 07:00-13,1-17,92,1 ⇓3,5101982n/a
20.10 06:00-12,10,00,8 ⇓1,7101981n/a
20.10 05:00-12,3-17,12,2 ⇘3,2101978n/a
20.10 04:00-11,3-15,82,1 ⇘2,9102079n/a
20.10 03:00-9,8-13,92,0 ⇘3,1102080n/a
20.10 02:00-8,8-12,51,9 ⇘3,1102084n/a
20.10 01:00-8,3-13,93,4 ⇓4,2102184n/a
20.10 00:00-8,2-11,31,6 ⇘1,9102187n/a
19.10 23:00-8,2-11,81,9 ⇘2,7102286n/a
19.10 22:00-8,2-11,31,6 ⇘1,8102287n/a
19.10 21:00-8,0-10,71,4 ⇘2,5102385n/a
19.10 20:00-7,8-11,41,9 ⇒3,3102376n/a
19.10 19:00-8,1-12,52,4 ⇘3,7102478n/a
19.10 18:00-8,3-14,94,5 ⇓5,9102479n/a
19.10 17:00-8,6-14,53,6 ⇓5,7102581n/a
19.10 16:00-8,9-16,25,2 ⇓6,4102582n/a
Position: (70.75,-22.65)

[Back]